QPF
0.00 0.00 0.00 0.00 0.00 0.00 0.00 0.00 0.01 0.00 0.00 0.00 0.00 0.00 0.00 0.00 0.00 0.00 0.01 0.01 0.01 0.01 0.03 0.02 0.01 0.01 0.01 0.01 0.03 0.05 0.14 0.29 0.26 0.15 0.11 0.09 0.11 0.13 0.11 0.10 0.11 0.07 0.06
0.00 0.00 0.00 0.00 0.00 0.00 0.00 0.01 0.01 0.00 0.00 0.00 0.00 0.00 0.00 0.01 0.01 0.01 0.01 0.01 0.01 0.01 0.02 0.02 0.01 0.01 0.01 0.01 0.03 0.04 0.14 0.25 0.23 0.20 0.18 0.14 0.18 0.19 0.12 0.10 0.10 0.08 0.06
0.00 0.00 0.00 0.00 0.00 0.00 0.00 0.00 0.00 0.00 0.00 0.00 0.00 0.01 0.01 0.01 0.01 0.02 0.02 0.01 0.01 0.01 0.01 0.02 0.02 0.01 0.02 0.03 0.03 0.04 0.08 0.14 0.17 0.21 0.21 0.17 0.13 0.17 0.16 0.10 0.09 0.07 0.05
0.00 0.00 0.00 0.00 0.00 0.00 0.00 0.00 0.00 0.00 0.00 0.00 0.00 0.02 0.01 0.01 0.02 0.03 0.02 0.01 0.01 0.01 0.01 0.01 0.01 0.01 0.02 0.03 0.05 0.04 0.04 0.08 0.17 0.17 0.18 0.16 0.12 0.11 0.12 0.11 0.09 0.06 0.06
0.00 0.00 0.00 0.00 0.00 0.00 0.00 0.00 0.00 0.01 0.01 0.01 0.01 0.02 0.02 0.01 0.02 0.03 0.01 0.01 0.01 0.01 0.01 0.01 0.01 0.01 0.02 0.02 0.04 0.04 0.05 0.07 0.18 0.17 0.14 0.15 0.14 0.10 0.08 0.08 0.07 0.05 0.06
0.00 0.00 0.00 0.00 0.00 0.00 0.01 0.01 0.01 0.01 0.02 0.02 0.01 0.03 0.03 0.01 0.02 0.02 0.02 0.02 0.02 0.02 0.01 0.02 0.03 0.03 0.02 0.02 0.03 0.03 0.03 0.09 0.13 0.15 0.13 0.14 0.15 0.12 0.08 0.06 0.06 0.06 0.05
0.00 0.00 0.00 0.00 0.00 0.00 0.00 0.01 0.01 0.02 0.02 0.01 0.02 0.03 0.02 0.01 0.02 0.02 0.01 0.02 0.02 0.02 0.01 0.02 0.04 0.04 0.05 0.03 0.02 0.02 0.03 0.06 0.15 0.14 0.13 0.13 0.13 0.12 0.10 0.08 0.07 0.05 0.04
0.00 0.00 0.00 0.00 0.00 0.00 0.00 0.01 0.01 0.02 0.02 0.02 0.02 0.03 0.03 0.03 0.02 0.01 0.01 0.01 0.01 0.02 0.01 0.01 0.01 0.02 0.03 0.04 0.03 0.02 0.02 0.04 0.12 0.17 0.22 0.14 0.11 0.09 0.09 0.07 0.06 0.05 0.04
0.00 0.00 0.00 0.01 0.01 0.01 0.01 0.01 0.01 0.01 0.02 0.02 0.02 0.02 0.03 0.03 0.02 0.01 0.01 0.02 0.01 0.02 0.01 0.01 0.01 0.02 0.03 0.04 0.03 0.03 0.03 0.03 0.07 0.11 0.20 0.18 0.11 0.08 0.08 0.07 0.06 0.05 0.05
0.00 0.00 0.00 0.00 0.01 0.01 0.01 0.00 0.00 0.01 0.01 0.02 0.01 0.01 0.02 0.03 0.03 0.02 0.02 0.02 0.02 0.03 0.02 0.01 0.02 0.03 0.03 0.04 0.04 0.03 0.02 0.03 0.04 0.08 0.11 0.13 0.09 0.08 0.09 0.12 0.10 0.07 0.05
0.00 0.00 0.00 0.00 0.00 0.01 0.01 0.02 0.01 0.00 0.01 0.02 0.01 0.01 0.02 0.02 0.02 0.03 0.03 0.02 0.03 0.03 0.02 0.02 0.02 0.03 0.04 0.04 0.04 0.02 0.01 0.03 0.05 0.07 0.09 0.09 0.07 0.07 0.10 0.14 0.18 0.18 0.09
0.00 0.00 0.00 0.00 0.00 0.00 0.00 0.01 0.01 0.00 0.00 0.00 0.01 0.01 0.02 0.02 0.03 0.04 0.04 0.03 0.03 0.02 0.02 0.02 0.02 0.02 0.03 0.03 0.04 0.02 0.01 0.01 0.06 0.07 0.09 0.08 0.07 0.08 0.09 0.13 0.18 0.29 0.25
0.00 0.00 0.00 0.00 0.00 0.00 0.00 0.00 0.01 0.01 0.00 0.00 0.01 0.01 0.01 0.01 0.02 0.03 0.04 0.04 0.04 0.03 0.02 0.02 0.03 0.03 0.02 0.02 0.04 0.02 0.01 0.01 0.01 0.05 0.10 0.09 0.07 0.06 0.08 0.10 0.16 0.26 0.35
0.00 0.00 0.00 0.00 0.00 0.00 0.00 0.00 0.00 0.00 0.01 0.01 0.01 0.01 0.00 0.00 0.01 0.02 0.04 0.03 0.03 0.04 0.05 0.04 0.04 0.03 0.04 0.04 0.04 0.02 0.01 0.01 0.01 0.02 0.07 0.10 0.07 0.05 0.06 0.07 0.11 0.21 0.34
0.00 0.00 0.00 0.00 0.00 0.00 0.00 0.00 0.00 0.00 0.00 0.00 0.01 0.01 0.01 0.01 0.01 0.01 0.01 0.02 0.03 0.04 0.04 0.04 0.05 0.04 0.03 0.03 0.03 0.02 0.02 0.02 0.03 0.03 0.06 0.09 0.07 0.04 0.03 0.05 0.07 0.11 0.20
0.00 0.00 0.00 0.00 0.00 0.00 0.00 0.00 0.00 0.00 0.00 0.00 0.01 0.01 0.01 0.01 0.01 0.01 0.01 0.01 0.02 0.03 0.04 0.03 0.03 0.04 0.03 0.02 0.03 0.02 0.02 0.02 0.04 0.06 0.09 0.10 0.09 0.06 0.03 0.03 0.03 0.06 0.10
0.00 0.00 0.00 0.00 0.00 0.00 0.00 0.00 0.00 0.00 0.00 0.00 0.00 0.01 0.01 0.01 0.01 0.01 0.01 0.01 0.01 0.02 0.03 0.03 0.03 0.03 0.03 0.02 0.03 0.03 0.02 0.03 0.05 0.10 0.12 0.15 0.13 0.09 0.05 0.05 0.04 0.04 0.06
0.00 0.00 0.00 0.00 0.00 0.00 0.00 0.00 0.00 0.00 0.00 0.00 0.00 0.01 0.02 0.01 0.01 0.01 0.01 0.01 0.01 0.01 0.02 0.03 0.03 0.04 0.03 0.02 0.02 0.02 0.01 0.02 0.03 0.08 0.10 0.15 0.16 0.11 0.09 0.07 0.06 0.05 0.06
0.00 0.00 0.00 0.00 0.00 0.00 0.00 0.00 0.00 0.00 0.00 0.00 0.00 0.02 0.02 0.01 0.02 0.02 0.01 0.01 0.01 0.01 0.02 0.03 0.03 0.04 0.04 0.02 0.02 0.02 0.01 0.02 0.01 0.03 0.07 0.12 0.16 0.14 0.11 0.10 0.07 0.05 0.05
0.00 0.00 0.00 0.00 0.00 0.00 0.00 0.00 0.00 0.00 0.00 0.00 0.00 0.01 0.02 0.02 0.02 0.01 0.01 0.01 0.01 0.02 0.02 0.03 0.04 0.06 0.04 0.02 0.02 0.03 0.02 0.02 0.02 0.02 0.04 0.07 0.13 0.15 0.13 0.10 0.07 0.06 0.05
0.00 0.00 0.00 0.00 0.00 0.00 0.00 0.00 0.00 0.00 0.00 0.00 0.00 0.01 0.02 0.02 0.02 0.01 0.01 0.02 0.02 0.02 0.03 0.03 0.04 0.06 0.04 0.02 0.03 0.03 0.03 0.04 0.04 0.04 0.04 0.05 0.06 0.09 0.10 0.09 0.07 0.05 0.05
0.00 0.00 0.00 0.00 0.00 0.00 0.00 0.00 0.00 0.00 0.00 0.00 0.00 0.00 0.01 0.01 0.01 0.00 0.01 0.01 0.02 0.02 0.03 0.03 0.03 0.03 0.02 0.03 0.03 0.03 0.02 0.03 0.04 0.05 0.05 0.04 0.05 0.06 0.07 0.07 0.07 0.07 0.06
0.00 0.00 0.00 0.00 0.00 0.00 0.00 0.00 0.00 0.00 0.00 0.00 0.00 0.00 0.00 0.00 0.01 0.01 0.01 0.01 0.01 0.01 0.02 0.02 0.02 0.02 0.02 0.02 0.03 0.02 0.03 0.04 0.05 0.05 0.06 0.05 0.05 0.06 0.06 0.06 0.07 0.08 0.08
0.00 0.00 0.00 0.00 0.00 0.00 0.00 0.00 0.00 0.00 0.00 0.00 0.00 0.00 0.00 0.00 0.00 0.01 0.01 0.01 0.01 0.01 0.02 0.02 0.01 0.02 0.02 0.02 0.03 0.03 0.04 0.05 0.06 0.06 0.06 0.06 0.06 0.05 0.06 0.05 0.06 0.07 0.08
0.00 0.00 0.00 0.00 0.00 0.00 0.00 0.00 0.00 0.00 0.00 0.00 0.00 0.00 0.00 0.00 0.00 0.00 0.01 0.02 0.02 0.01 0.02 0.02 0.02 0.02 0.04 0.04 0.04 0.04 0.03 0.04 0.04 0.04 0.05 0.05 0.05 0.06 0.06 0.06 0.05 0.05 0.07
0.00 0.00 0.00 0.00 0.00 0.00 0.00 0.00 0.00 0.00 0.00 0.00 0.00 0.00 0.00 0.00 0.00 0.00 0.01 0.03 0.02 0.01 0.01 0.01 0.01 0.01 0.01 0.03 0.03 0.04 0.04 0.04 0.03 0.03 0.04 0.04 0.04 0.05 0.05 0.05 0.05 0.05 0.05
MSLP
1015.79 1015.77 1015.70 1015.55 1015.36 1015.13 1014.86 1014.59 1014.31 1014.05 1013.82 1013.62 1013.46 1013.35 1013.27 1013.23 1013.22 1013.23 1013.26 1013.31 1013.37 1013.44 1013.49 1013.50 1013.45 1013.30 1013.01 1012.58 1012.00 1011.31 1010.57 1009.86 1009.29 1008.93 1008.87 1009.13 1009.70 1010.54 1011.55 1012.64 1013.71 1014.68 1015.50
1015.95 1015.94 1015.87 1015.75 1015.57 1015.36 1015.11 1014.85 1014.60 1014.36 1014.15 1013.98 1013.84 1013.73 1013.65 1013.58 1013.53 1013.48 1013.46 1013.46 1013.48 1013.51 1013.55 1013.56 1013.49 1013.29 1012.93 1012.38 1011.65 1010.78 1009.85 1008.96 1008.23 1007.77 1007.67 1007.95 1008.61 1009.59 1010.77 1012.05 1013.30 1014.43 1015.38
1016.14 1016.13 1016.08 1015.97 1015.82 1015.63 1015.42 1015.19 1014.97 1014.78 1014.61 1014.47 1014.35 1014.25 1014.16 1014.05 1013.94 1013.83 1013.72 1013.64 1013.59 1013.58 1013.58 1013.56 1013.48 1013.26 1012.85 1012.24 1011.43 1010.45 1009.40 1008.39 1007.57 1007.04 1006.91 1007.22 1007.93 1008.99 1010.29 1011.69 1013.06 1014.30 1015.35
1016.37 1016.35 1016.30 1016.22 1016.09 1015.94 1015.76 1015.58 1015.40 1015.25 1015.13 1015.03 1014.94 1014.85 1014.74 1014.60 1014.44 1014.24 1014.05 1013.87 1013.74 1013.65 1013.60 1013.56 1013.46 1013.23 1012.84 1012.22 1011.40 1010.41 1009.33 1008.30 1007.45 1006.91 1006.77 1007.07 1007.80 1008.89 1010.22 1011.65 1013.06 1014.33 1015.40
1016.63 1016.59 1016.55 1016.48 1016.38 1016.26 1016.12 1015.98 1015.85 1015.74 1015.66 1015.59 1015.54 1015.46 1015.36 1015.19 1014.97 1014.71 1014.43 1014.16 1013.94 1013.77 1013.67 1013.59 1013.48 1013.28 1012.93 1012.38 1011.63 1010.71 1009.70 1008.73 1007.93 1007.42 1007.29 1007.59 1008.29 1009.33 1010.60 1011.98 1013.32 1014.53 1015.55
1016.93 1016.89 1016.84 1016.77 1016.70 1016.60 1016.49 1016.38 1016.29 1016.21 1016.17 1016.14 1016.11 1016.06 1015.96 1015.79 1015.54 1015.23 1014.88 1014.54 1014.23 1013.99 1013.83 1013.72 1013.61 1013.45 1013.17 1012.73 1012.12 1011.35 1010.50 1009.66 1008.97 1008.53 1008.43 1008.71 1009.34 1010.27 1011.41 1012.63 1013.81 1014.88 1015.78
1017.30 1017.24 1017.18 1017.12 1017.06 1016.98 1016.89 1016.80 1016.73 1016.67 1016.65 1016.65 1016.64 1016.62 1016.54 1016.38 1016.13 1015.80 1015.42 1015.02 1014.65 1014.35 1014.13 1013.99 1013.89 1013.77 1013.59 1013.28 1012.83 1012.26 1011.61 1010.96 1010.43 1010.09 1010.03 1010.27 1010.81 1011.59 1012.53 1013.54 1014.50 1015.36 1016.09
1017.73 1017.66 1017.60 1017.55 1017.49 1017.42 1017.35 1017.27 1017.20 1017.15 1017.13 1017.14 1017.16 1017.16 1017.11 1016.98 1016.76 1016.44 1016.05 1015.63 1015.23 1014.88 1014.62 1014.44 1014.33 1014.25 1014.14 1013.97 1013.69 1013.32 1012.89 1012.44 1012.08 1011.86 1011.84 1012.06 1012.49 1013.10 1013.82 1014.58 1015.30 1015.93 1016.46
1018.23 1018.15 1018.10 1018.05 1018.01 1017.95 1017.87 1017.79 1017.72 1017.66 1017.64 1017.65 1017.68 1017.70 1017.69 1017.60 1017.42 1017.15 1016.78 1016.37 1015.96 1015.58 1015.28 1015.06 1014.93 1014.86 1014.80 1014.71 1014.58 1014.38 1014.14 1013.89 1013.69 1013.58 1013.61 1013.80 1014.14 1014.59 1015.11 1015.63 1016.12 1016.54 1016.88
1018.76 1018.70 1018.65 1018.62 1018.59 1018.54 1018.48 1018.40 1018.31 1018.24 1018.21 1018.21 1018.24 1018.28 1018.30 1018.26 1018.14 1017.91 1017.60 1017.22 1016.82 1016.42 1016.08 1015.82 1015.64 1015.54 1015.48 1015.43 1015.38 1015.30 1015.21 1015.11 1015.04 1015.03 1015.11 1015.29 1015.55 1015.88 1016.23 1016.57 1016.88 1017.13 1017.33
1019.28 1019.24 1019.22 1019.22 1019.21 1019.18 1019.12 1019.05 1018.96 1018.88 1018.83 1018.82 1018.84 1018.89 1018.94 1018.94 1018.88 1018.72 1018.47 1018.13 1017.75 1017.35 1016.97 1016.65 1016.41 1016.24 1016.14 1016.08 1016.04 1016.02 1016.00 1015.99 1016.02 1016.08 1016.20 1016.38 1016.60 1016.84 1017.09 1017.32 1017.50 1017.65 1017.76
1019.75 1019.74 1019.75 1019.78 1019.80 1019.80 1019.77 1019.71 1019.62 1019.54 1019.48 1019.45 1019.47 1019.52 1019.58 1019.62 1019.61 1019.52 1019.33 1019.05 1018.69 1018.30 1017.89 1017.52 1017.19 1016.94 1016.75 1016.62 1016.55 1016.51 1016.51 1016.54 1016.61 1016.71 1016.86 1017.04 1017.25 1017.46 1017.66 1017.83 1017.96 1018.07 1018.16
1020.12 1020.14 1020.18 1020.24 1020.30 1020.33 1020.34 1020.31 1020.24 1020.17 1020.10 1020.07 1020.08 1020.13 1020.20 1020.27 1020.30 1020.26 1020.13 1019.91 1019.59 1019.21 1018.79 1018.37 1017.97 1017.62 1017.33 1017.11 1016.95 1016.85 1016.81 1016.83 1016.89 1017.01 1017.16 1017.35 1017.55 1017.76 1017.95 1018.12 1018.26 1018.37 1018.47
1020.36 1020.40 1020.48 1020.57 1020.66 1020.74 1020.79 1020.80 1020.77 1020.71 1020.66 1020.63 1020.63 1020.67 1020.75 1020.83 1020.90 1020.91 1020.84 1020.67 1020.40 1020.05 1019.63 1019.18 1018.73 1018.29 1017.91 1017.58 1017.33 1017.14 1017.03 1016.99 1017.02 1017.12 1017.26 1017.43 1017.64 1017.84 1018.05 1018.23 1018.40 1018.54 1018.68
1020.47 1020.53 1020.63 1020.74 1020.87 1020.99 1021.09 1021.14 1021.16 1021.14 1021.11 1021.08 1021.09 1021.13 1021.21 1021.30 1021.39 1021.44 1021.42 1021.31 1021.10 1020.79 1020.40 1019.95 1019.47 1018.99 1018.53 1018.12 1017.78 1017.50 1017.31 1017.20 1017.17 1017.20 1017.30 1017.45 1017.63 1017.84 1018.04 1018.24 1018.43 1018.60 1018.77
1020.48 1020.55 1020.65 1020.79 1020.95 1021.11 1021.25 1021.35 1021.41 1021.43 1021.43 1021.42 1021.44 1021.48 1021.56 1021.66 1021.77 1021.85 1021.87 1021.82 1021.68 1021.43 1021.09 1020.68 1020.21 1019.72 1019.23 1018.78 1018.36 1018.02 1017.75 1017.56 1017.45 1017.42 1017.45 1017.54 1017.67 1017.84 1018.02 1018.20 1018.39 1018.57 1018.75
1020.43 1020.50 1020.61 1020.75 1020.93 1021.12 1021.29 1021.44 1021.55 1021.61 1021.64 1021.66 1021.69 1021.73 1021.81 1021.92 1022.03 1022.14 1022.20 1022.21 1022.13 1021.96 1021.70 1021.35 1020.94 1020.48 1020.01 1019.54 1019.10 1018.72 1018.39 1018.13 1017.94 1017.82 1017.77 1017.78 1017.83 1017.92 1018.04 1018.18 1018.32 1018.48 1018.63
1020.37 1020.44 1020.55 1020.70 1020.88 1021.09 1021.29 1021.47 1021.61 1021.71 1021.78 1021.82 1021.85 1021.90 1021.98 1022.08 1022.21 1022.33 1022.43 1022.49 1022.48 1022.39 1022.21 1021.95 1021.62 1021.23 1020.80 1020.37 1019.94 1019.54 1019.18 1018.87 1018.61 1018.41 1018.27 1018.17 1018.12 1018.11 1018.13 1018.18 1018.25 1018.34 1018.44
1020.32 1020.40 1020.50 1020.65 1020.84 1021.06 1021.28 1021.48 1021.65 1021.78 1021.86 1021.91 1021.96 1022.01 1022.08 1022.18 1022.31 1022.44 1022.57 1022.67 1022.72 1022.70 1022.61 1022.44 1022.20 1021.89 1021.54 1021.17 1020.78 1020.40 1020.03 1019.68 1019.37 1019.10 1018.86 1018.66 1018.49 1018.37 1018.27 1018.22 1018.19 1018.19 1018.21
1020.29 1020.37 1020.48 1020.64 1020.84 1021.06 1021.29 1021.50 1021.68 1021.81 1021.91 1021.97 1022.01 1022.06 1022.12 1022.22 1022.34 1022.48 1022.62 1022.75 1022.85 1022.89 1022.88 1022.79 1022.63 1022.41 1022.15 1021.84 1021.50 1021.15 1020.80 1020.44 1020.10 1019.76 1019.45 1019.15 1018.88 1018.64 1018.43 1018.26 1018.13 1018.03 1017.97
1020.23 1020.34 1020.47 1020.64 1020.84 1021.07 1021.30 1021.51 1021.68 1021.82 1021.91 1021.96 1022.00 1022.04 1022.09 1022.18 1022.29 1022.43 1022.58 1022.73 1022.86 1022.95 1022.98 1022.96 1022.87 1022.73 1022.53 1022.29 1022.01 1021.70 1021.38 1021.03 1020.67 1020.30 1019.93 1019.56 1019.20 1018.87 1018.56 1018.29 1018.06 1017.87 1017.73
1020.10 1020.24 1020.41 1020.60 1020.82 1021.05 1021.27 1021.47 1021.64 1021.76 1021.83 1021.88 1021.90 1021.93 1021.98 1022.06 1022.16 1022.30 1022.45 1022.60 1022.74 1022.85 1022.92 1022.94 1022.90 1022.80 1022.66 1022.47 1022.24 1021.98 1021.68 1021.36 1021.00 1020.62 1020.23 1019.82 1019.41 1019.01 1018.63 1018.28 1017.97 1017.71 1017.49
1019.85 1020.04 1020.25 1020.47 1020.70 1020.94 1021.15 1021.34 1021.49 1021.59 1021.65 1021.68 1021.70 1021.72 1021.76 1021.84 1021.94 1022.07 1022.22 1022.37 1022.51 1022.63 1022.70 1022.73 1022.71 1022.64 1022.53 1022.38 1022.19 1021.96 1021.70 1021.41 1021.08 1020.71 1020.32 1019.91 1019.48 1019.05 1018.62 1018.22 1017.86 1017.53 1017.25
1019.45 1019.69 1019.94 1020.20 1020.45 1020.69 1020.90 1021.07 1021.20 1021.28 1021.33 1021.35 1021.37 1021.39 1021.44 1021.51 1021.62 1021.75 1021.90 1022.04 1022.17 1022.27 1022.34 1022.36 1022.34 1022.27 1022.17 1022.03 1021.87 1021.67 1021.45 1021.20 1020.91 1020.58 1020.22 1019.82 1019.40 1018.97 1018.53 1018.11 1017.71 1017.34 1017.01
1018.89 1019.18 1019.47 1019.76 1020.03 1020.27 1020.48 1020.64 1020.75 1020.82 1020.86 1020.89 1020.91 1020.95 1021.01 1021.10 1021.21 1021.35 1021.50 1021.63 1021.74 1021.82 1021.86 1021.86 1021.81 1021.73 1021.62 1021.49 1021.34 1021.18 1020.99 1020.78 1020.54 1020.27 1019.95 1019.60 1019.21 1018.80 1018.37 1017.94 1017.52 1017.12 1016.75
1018.19 1018.52 1018.85 1019.16 1019.45 1019.69 1019.89 1020.04 1020.15 1020.22 1020.26 1020.30 1020.34 1020.40 1020.49 1020.60 1020.74 1020.88 1021.02 1021.15 1021.23 1021.28 1021.29 1021.25 1021.17 1021.07 1020.95 1020.82 1020.68 1020.54 1020.39 1020.23 1020.05 1019.83 1019.58 1019.28 1018.93 1018.55 1018.13 1017.70 1017.27 1016.85 1016.44
Thickness
5744 5742 5741 5738 5737 5736 5734 5733 5733 5732 5732 5732 5733 5733 5733 5734 5735 5734 5733 5733 5733 5733 5733 5734 5735 5737 5738 5741 5743 5746 5750 5754 5757 5759 5760 5760 5762 5764 5765 5765 5765 5764 5764
5742 5740 5738 5736 5735 5734 5733 5732 5731 5730 5730 5730 5730 5730 5731 5731 5732 5732 5732 5731 5731 5731 5731 5732 5733 5734 5736 5738 5740 5743 5746 5748 5752 5755 5757 5758 5759 5761 5762 5763 5762 5762 5762
5740 5738 5735 5734 5733 5732 5731 5730 5729 5728 5728 5728 5727 5728 5729 5728 5730 5730 5730 5730 5730 5730 5730 5730 5731 5732 5733 5735 5736 5739 5742 5744 5747 5751 5753 5755 5755 5757 5757 5758 5758 5758 5759
5738 5736 5733 5732 5731 5729 5728 5727 5725 5724 5724 5723 5723 5725 5726 5727 5728 5728 5729 5729 5729 5729 5728 5728 5728 5729 5730 5732 5733 5735 5738 5740 5744 5747 5749 5750 5751 5752 5753 5754 5755 5756 5757
5736 5734 5732 5730 5729 5727 5725 5725 5723 5722 5720 5720 5722 5723 5724 5725 5726 5726 5726 5727 5727 5727 5726 5726 5726 5726 5727 5729 5730 5732 5735 5737 5740 5742 5744 5746 5747 5748 5749 5750 5752 5753 5754
5733 5732 5731 5728 5726 5724 5722 5722 5720 5720 5719 5719 5721 5721 5722 5723 5724 5723 5723 5724 5724 5724 5724 5724 5724 5724 5724 5726 5727 5729 5731 5733 5736 5738 5740 5741 5743 5744 5745 5747 5748 5750 5751
5731 5730 5728 5726 5724 5722 5720 5719 5718 5716 5716 5717 5715 5714 5718 5722 5721 5721 5721 5721 5721 5721 5721 5722 5722 5722 5722 5723 5724 5725 5727 5730 5732 5734 5736 5738 5740 5740 5741 5743 5745 5746 5748
5729 5728 5726 5724 5723 5720 5718 5717 5715 5712 5712 5714 5709 5705 5703 5707 5713 5717 5717 5717 5717 5717 5718 5719 5719 5720 5720 5720 5720 5722 5723 5726 5728 5730 5732 5735 5736 5737 5738 5740 5741 5743 5745
5727 5725 5724 5722 5721 5719 5716 5715 5713 5710 5707 5709 5709 5703 5695 5691 5698 5707 5711 5712 5712 5713 5713 5715 5716 5716 5716 5716 5717 5718 5720 5722 5724 5726 5728 5731 5732 5733 5735 5736 5737 5740 5742
5725 5724 5722 5720 5719 5717 5714 5713 5712 5709 5706 5702 5704 5704 5701 5698 5692 5692 5700 5705 5708 5708 5709 5711 5712 5712 5712 5713 5713 5714 5716 5718 5720 5722 5724 5726 5727 5729 5731 5733 5735 5737 5739
5723 5721 5720 5718 5716 5714 5713 5711 5709 5707 5705 5701 5699 5698 5697 5697 5695 5689 5687 5693 5699 5703 5706 5707 5707 5708 5709 5709 5710 5710 5712 5714 5716 5718 5720 5722 5724 5726 5728 5729 5732 5734 5736
5720 5719 5717 5715 5714 5712 5710 5708 5706 5704 5702 5700 5698 5695 5693 5690 5688 5687 5684 5686 5689 5695 5701 5702 5703 5704 5705 5706 5706 5707 5708 5710 5712 5714 5716 5718 5720 5722 5724 5726 5728 5730 5732
5716 5715 5715 5713 5711 5709 5707 5705 5703 5701 5699 5696 5694 5692 5691 5689 5688 5686 5682 5681 5683 5689 5694 5697 5700 5701 5702 5702 5703 5704 5705 5707 5709 5710 5712 5714 5716 5718 5720 5722 5724 5726 5728
5715 5714 5712 5710 5708 5706 5704 5702 5699 5697 5695 5692 5691 5689 5687 5686 5685 5683 5679 5677 5675 5679 5684 5687 5694 5695 5697 5698 5699 5700 5702 5703 5705 5707 5709 5711 5713 5715 5717 5718 5720 5722 5724
5713 5712 5710 5708 5705 5703 5701 5698 5695 5693 5691 5688 5686 5684 5681 5681 5680 5680 5679 5676 5671 5668 5671 5679 5684 5689 5691 5693 5695 5696 5698 5700 5702 5704 5706 5708 5710 5711 5713 5715 5716 5718 5720
5710 5709 5707 5705 5702 5700 5697 5694 5691 5689 5686 5684 5682 5679 5676 5675 5675 5675 5674 5673 5671 5667 5666 5673 5677 5682 5686 5688 5690 5692 5694 5696 5698 5700 5702 5704 5707 5708 5710 5712 5712 5713 5715
5707 5705 5703 5701 5698 5696 5693 5690 5687 5685 5682 5679 5677 5675 5672 5671 5669 5669 5668 5668 5666 5666 5663 5667 5673 5677 5680 5682 5685 5687 5689 5691 5693 5695 5697 5700 5703 5705 5708 5709 5710 5710 5711
5704 5702 5700 5697 5694 5692 5689 5686 5683 5680 5677 5674 5672 5670 5668 5667 5664 5663 5662 5661 5661 5662 5661 5661 5666 5670 5673 5676 5679 5681 5684 5686 5688 5691 5693 5695 5697 5700 5703 5705 5706 5706 5706
5699 5697 5694 5692 5689 5686 5684 5681 5678 5675 5673 5670 5668 5665 5663 5661 5658 5657 5656 5655 5656 5658 5658 5658 5660 5664 5667 5671 5672 5674 5677 5679 5682 5685 5688 5690 5691 5694 5697 5698 5699 5700 5700
5693 5691 5689 5686 5684 5681 5678 5675 5672 5669 5668 5666 5664 5662 5659 5657 5654 5652 5652 5650 5651 5651 5652 5653 5654 5657 5660 5664 5664 5664 5667 5670 5674 5678 5680 5682 5684 5687 5688 5690 5692 5693 5694
5688 5685 5683 5680 5678 5675 5671 5667 5664 5664 5662 5660 5659 5658 5656 5654 5652 5650 5648 5646 5645 5645 5645 5646 5647 5650 5651 5653 5654 5657 5657 5661 5665 5669 5671 5673 5676 5678 5680 5682 5683 5685 5687
5682 5679 5676 5673 5670 5668 5664 5661 5658 5656 5655 5654 5653 5652 5651 5649 5647 5646 5645 5644 5642 5641 5640 5640 5640 5640 5642 5644 5647 5648 5648 5649 5652 5658 5660 5662 5665 5668 5671 5674 5676 5677 5679
5675 5672 5669 5667 5663 5660 5658 5655 5653 5650 5649 5648 5647 5645 5645 5644 5640 5639 5639 5639 5638 5638 5638 5636 5634 5634 5635 5637 5637 5638 5638 5639 5641 5646 5649 5650 5654 5657 5661 5664 5667 5669 5670
5669 5666 5663 5660 5657 5654 5652 5649 5647 5645 5643 5642 5641 5639 5637 5635 5633 5631 5631 5631 5631 5631 5631 5630 5629 5629 5630 5630 5629 5630 5630 5631 5633 5636 5638 5638 5642 5645 5650 5653 5655 5657 5659
5663 5660 5657 5654 5651 5648 5646 5643 5640 5637 5636 5635 5634 5632 5629 5626 5625 5624 5623 5622 5622 5622 5623 5623 5623 5622 5622 5622 5622 5620 5619 5618 5619 5623 5625 5625 5629 5632 5636 5640 5642 5644 5646
5658 5655 5652 5649 5646 5643 5640 5637 5633 5630 5628 5627 5626 5624 5622 5619 5617 5614 5612 5611 5610 5611 5612 5612 5612 5613 5613 5613 5612 5611 5609 5606 5607 5609 5612 5612 5613 5615 5619 5625 5628 5629 5631